This is the latest recevied weather packets stored in our database for station/object M0SDM. If no packets are shown the sender has not sent any weather packets the latest 10 day(s).
| Time | Temp. | Humidity | Pressure | Rain* | Wind** | Luminosity | Snow |
|---|---|---|---|---|---|---|---|
| 1777471821 | 16.67° C | 42% | 1024.6 hPa | 0 mm | - | - | - |
| 1777470921 | 16.67° C | 42% | 1024.7 hPa | 0 mm | - | - | - |
| 1777470021 | 16.67° C | 44% | 1024.8 hPa | 0 mm | - | - | - |
| 1777469121 | 17.22° C | 44% | 1024.7 hPa | 0 mm | - | - | - |
| 1777468221 | 17.22° C | 45% | 1024.9 hPa | 0 mm | - | - | - |
| 1777467321 | 17.22° C | 44% | 1025 hPa | 0 mm | - | - | - |
| 1777466421 | 17.22° C | 44% | 1024.9 hPa | 0 mm | - | - | - |
| 1777465521 | 17.22° C | 44% | 1025 hPa | 0 mm | - | - | - |
| 1777464621 | 16.67° C | 47% | 1025.2 hPa | 0 mm | - | - | - |
| 1777463721 | 16.67° C | 47% | 1025.6 hPa | 0 mm | - | - | - |
| 1777462821 | 16.67° C | 48% | 1025.7 hPa | 0 mm | - | - | - |
| 1777461921 | 16.67° C | 49% | 1025.7 hPa | 0 mm | - | - | - |
| 1777461021 | 16.11° C | 48% | 1025.8 hPa | 0 mm | - | - | - |
| 1777460121 | 16.11° C | 49% | 1026.2 hPa | 0 mm | - | - | - |
| 1777459221 | 16.11° C | 50% | 1026.3 hPa | 0 mm | - | - | - |
| 1777458321 | 16.67° C | 50% | 1026.3 hPa | 0 mm | - | - | - |
| 1777457421 | 16.11° C | 52% | 1026.7 hPa | 0 mm | - | - | - |
| 1777456521 | 15° C | 52% | 1026.7 hPa | 0 mm | - | - | - |
| 1777455621 | 15° C | 55% | 1026.9 hPa | 0 mm | - | - | - |
| 1777454721 | 14.44° C | 56% | 1027 hPa | 0 mm | - | - | - |
| 1777453821 | 13.89° C | 57% | 1027.2 hPa | 0 mm | - | - | - |
| 1777452921 | 13.89° C | 59% | 1027.3 hPa | 0 mm | - | - | - |
| 1777452021 | 12.78° C | 66% | 1027.2 hPa | 0 mm | - | - | - |
| 1777451121 | 12.22° C | 69% | 1027.5 hPa | 0 mm | - | - | - |
| 1777450221 | 11.67° C | 72% | 1027.4 hPa | 0 mm | - | - | - |
* Rain latest hour (hover to see other rain measurements)
** Current wind speed in m/s (hover to see current wind gust speed)